International Skating Union - Official Site

Essent ISU World Cup Salt Lake City
February 18-19, 2011

Draw | Lap Times | Index | World Cup

Referee: Dave  THOMSON  (CAN)
Starter: Marc  WHITMORE  (USA)
StartTime: EndTime: Air Temp: Ice Temp: Humidity:
13:22 14:14 18.6℃ -11.4℃ 14.7%
Result 5000m Ladies Division A
Rankings as of Feb 18 2011 2:15PM
Rank: No.: Name: Nation: Time: Behind: Points:
1 12 Martina  SÁBLIKOVÁ CZE CZE 6:42.66200m - 20.29 - (20.2)
600m - 51.39 - (31.1)
1000m - 1:22.83 - (31.4)
1400m - 1:54.30 - (31.4)
1800m - 2:25.90 - (31.6)
2200m - 2:57.53 - (31.6)
2600m - 3:29.37 - (31.8)
3000m - 4:01.54 - (32.1)
3400m - 4:33.55 - (32.0)
3800m - 5:05.45 - (31.9)
4200m - 5:37.66 - (32.2)
4600m - 6:09.87 - (32.2)
5000m - 6:42.66 - (32.7)
WR 100
2 16 Stephanie  BECKERT GER GER 6:47.03200m - 20.97 - (20.9)
600m - 52.47 - (31.5)
1000m - 1:23.99 - (31.5)
1400m - 1:55.69 - (31.7)
1800m - 2:27.58 - (31.8)
2200m - 2:59.58 - (32.0)
2600m - 3:31.58 - (32.0)
3000m - 4:03.99 - (32.4)
3400m - 4:36.39 - (32.4)
3800m - 5:09.07 - (32.6)
4200m - 5:41.81 - (32.7)
4600m - 6:14.78 - (32.9)
5000m - 6:47.03 - (32.2)
4.37 80
3 22 Eriko  ISHINO JPN JPN 6:55.07200m - 20.41 - (20.4)
600m - 52.02 - (31.6)
1000m - 1:23.84 - (31.8)
1400m - 1:55.93 - (32.0)
1800m - 2:28.21 - (32.2)
2200m - 3:00.64 - (32.4)
2600m - 3:33.11 - (32.4)
3000m - 4:06.07 - (32.9)
3400m - 4:39.27 - (33.2)
3800m - 5:12.76 - (33.4)
4200m - 5:46.66 - (33.9)
4600m - 6:20.74 - (34.0)
5000m - 6:55.07 - (34.3)
12.41 70
4 23 Shiho  ISHIZAWA JPN JPN 6:55.43200m - 20.97 - (20.9)
600m - 52.96 - (31.9)
1000m - 1:25.38 - (32.4)
1400m - 1:57.71 - (32.3)
1800m - 2:30.14 - (32.4)
2200m - 3:02.62 - (32.4)
2600m - 3:35.32 - (32.7)
3000m - 4:08.22 - (32.9)
3400m - 4:41.29 - (33.0)
3800m - 5:14.49 - (33.2)
4200m - 5:48.06 - (33.5)
4600m - 6:22.16 - (34.1)
5000m - 6:55.43 - (33.2)
12.77 60
5 4 Cindy  KLASSEN CAN CAN 6:55.98200m - 20.24 - (20.2)
600m - 51.76 - (31.5)
1000m - 1:23.88 - (32.1)
1400m - 1:56.10 - (32.2)
1800m - 2:28.30 - (32.2)
2200m - 3:00.20 - (31.9)
2600m - 3:32.31 - (32.1)
3000m - 4:04.60 - (32.2)
3400m - 4:37.16 - (32.5)
3800m - 5:10.08 - (32.9)
4200m - 5:43.97 - (33.8)
4600m - 6:19.01 - (35.0)
5000m - 6:55.98 - (36.9)
13.32 50
6 32 Jorien  VOORHUIS NED NED 6:59.24200m - 20.10 - (20.1)
600m - 52.41 - (32.3)
1000m - 1:25.37 - (32.9)
1400m - 1:58.51 - (33.1)
1800m - 2:31.30 - (32.7)
2200m - 3:04.12 - (32.8)
2600m - 3:37.13 - (33.0)
3000m - 4:10.03 - (32.9)
3400m - 4:43.18 - (33.1)
3800m - 5:16.62 - (33.4)
4200m - 5:50.31 - (33.6)
4600m - 6:24.40 - (34.0)
5000m - 6:59.24 - (34.8)
16.58 45
7 49 Jilleanne  ROOKARD USA USA 7:01.41200m - 20.69 - (20.6)
600m - 52.73 - (32.0)
1000m - 1:25.28 - (32.5)
1400m - 1:58.56 - (33.2)
1800m - 2:31.69 - (33.1)
2200m - 3:05.08 - (33.3)
2600m - 3:38.27 - (33.1)
3000m - 4:11.62 - (33.3)
3400m - 4:45.27 - (33.6)
3800m - 5:18.77 - (33.5)
4200m - 5:52.86 - (34.0)
4600m - 6:27.18 - (34.3)
5000m - 7:01.41 - (34.2)
18.75 40
8 21 Masako  HOZUMI JPN JPN 7:08.04200m - 20.49 - (20.4)
600m - 51.47 - (30.9)
1000m - 1:23.33 - (31.8)
1400m - 1:55.45 - (32.1)
1800m - 2:27.70 - (32.2)
2200m - 3:00.55 - (32.8)
2600m - 3:33.77 - (33.2)
3000m - 4:07.93 - (34.1)
3400m - 4:42.86 - (34.9)
3800m - 5:18.89 - (36.0)
4200m - 5:55.75 - (36.8)
4600m - 6:32.11 - (36.3)
5000m - 7:08.04 - (35.9)
25.38 35
9 44 Yelena  SOKHRYAKOVA RUS RUS 7:08.53200m - 20.54 - (20.5)
600m - 52.06 - (31.5)
1000m - 1:24.07 - (32.0)
1400m - 1:57.05 - (32.9)
1800m - 2:30.06 - (33.0)
2200m - 3:03.72 - (33.6)
2600m - 3:38.10 - (34.3)
3000m - 4:13.22 - (35.1)
3400m - 4:47.76 - (34.5)
3800m - 5:22.52 - (34.7)
4200m - 5:58.45 - (35.9)
4600m - 6:34.31 - (35.8)
5000m - 7:08.53 - (34.2)
25.87 30
10 35 Ida  NJÅTUN NOR NOR 7:09.41200m - 20.66 - (20.6)
600m - 53.16 - (32.5)
1000m - 1:26.37 - (33.2)
1400m - 1:59.55 - (33.1)
1800m - 2:32.46 - (32.9)
2200m - 3:05.79 - (33.3)
2600m - 3:39.24 - (33.4)
3000m - 4:13.20 - (33.9)
3400m - 4:47.37 - (34.1)
3800m - 5:22.15 - (34.7)
4200m - 5:57.37 - (35.2)
4600m - 6:33.31 - (35.9)
5000m - 7:09.41 - (36.1)
26.75 25
11 30 Diane  VALKENBURG NED NED 7:09.71200m - 20.45 - (20.4)
600m - 52.00 - (31.5)
1000m - 1:24.45 - (32.4)
1400m - 1:57.04 - (32.5)
1800m - 2:29.63 - (32.5)
2200m - 3:02.30 - (32.6)
2600m - 3:35.40 - (33.1)
3000m - 4:08.66 - (33.2)
3400m - 4:42.36 - (33.7)
3800m - 5:16.55 - (34.1)
4200m - 5:52.00 - (35.4)
4600m - 6:29.49 - (37.4)
5000m - 7:09.71 - (40.2)
27.05 20
12 8 Brittany  SCHUSSLER CAN CAN 7:12.68200m - 21.47 - (21.4)
600m - 52.98 - (31.5)
1000m - 1:25.79 - (32.8)
1400m - 1:58.71 - (32.9)
1800m - 2:32.09 - (33.3)
2200m - 3:05.53 - (33.4)
2600m - 3:39.32 - (33.7)
3000m - 4:13.34 - (34.0)
3400m - 4:47.77 - (34.4)
3800m - 5:23.09 - (35.3)
4200m - 5:58.90 - (35.8)
4600m - 6:35.54 - (36.6)
5000m - 7:12.68 - (37.1)
30.02 15